Weather History for Key West NAF, FL

Change the Weather History Date:

Monday, March 4, 2013

  Actual Average Record
Temperature  
Mean Temperature 60 °F -  
Max Temperature 64 °F 77 °F 84 °F (1997)
Min Temperature 55 °F 68 °F 49 °F (1980)
Degree Days  
Heating Degree Days 6    
Growing Degree Days 10 (Base 50)    
Moisture  
Dew Point 47 °F    
Average Humidity 61    
Maximum Humidity 77    
Minimum Humidity 44    
Precipitation  
Precipitation 0.00 in - - ()
Sea Level Pressure  
Sea Level Pressure 30.18 in    
Wind  
Wind Speed 9 mph (NNE)    
Max Wind Speed 13 mph    
Max Gust Speed -    
Visibility 10 miles    
Events      
Averages and records for this station are not official NWS values.
T = Trace of Precipitation, MM = Missing Value Source: NWS Daily Summary

Daily Weather History Graph

Daily Weather History Graph

Search for Another Location

Airport:

Trip Planner

Search our weather history database for the weather conditions in past years. The results will help you decide how hot, cold, wet, or windy it might be!

Date:

Astronomy

Mar. 04, 2013 Rise Set
Actual Time 6:46 AM EST 6:30 PM EST
Civil Twilight 6:23 AM EST 6:53 PM EST
Nautical Twilight 5:57 AM EST 7:20 PM EST
Astronomical Twilight 5:30 AM EST 7:46 PM EST
Moon 12:29 AM EST (3/4) 11:37 AM EST (3/4)
Length of Visible Light 12h 30m
Length of Day
11h 44m
Waning Gibbous, 52% of the Moon is Illuminated
Mar 4
Waning Gibbous
Mar 4
Last Quarter
Mar 11
New
Mar 19
First Quarter
Mar 27
Full

Hourly Weather History & Observations

Time (EST) Temp. Dew Point Humidity Pressure Visibility Wind Dir Wind Speed Gust Speed Precip Events Conditions
12:53 AM 62.1 °F 44.1 °F 52% 30.16 in 10.0 mi NW 8.1 mph - N/A   Scattered Clouds
1:53 AM 60.1 °F 46.0 °F 60% 30.14 in 10.0 mi NNW 12.7 mph - N/A   Partly Cloudy
2:53 AM 60.1 °F 45.0 °F 57% 30.14 in 10.0 mi NNW 11.5 mph - N/A   Partly Cloudy
3:53 AM 61.0 °F 45.0 °F 56% 30.14 in 10.0 mi NNW 11.5 mph - N/A   Overcast
4:53 AM 60.1 °F 45.0 °F 57% 30.15 in 10.0 mi NNW 11.5 mph - N/A   Mostly Cloudy
5:53 AM 60.1 °F 45.0 °F 57% 30.16 in 10.0 mi NNW 11.5 mph - N/A   Scattered Clouds
6:53 AM 61.0 °F 46.9 °F 60% 30.17 in 10.0 mi North 12.7 mph - N/A   Mostly Cloudy
7:53 AM 60.1 °F 37.9 °F 44% 30.19 in 10.0 mi ENE 8.1 mph - N/A   Mostly Cloudy
8:53 AM 59.0 °F 50.0 °F 72% 30.22 in 10.0 mi ENE 12.7 mph - N/A   Mostly Cloudy
9:53 AM 60.1 °F 48.9 °F 67% 30.23 in 10.0 mi East 12.7 mph - N/A   Mostly Cloudy
10:53 AM 62.1 °F 48.9 °F 62% 30.23 in 10.0 mi ENE 9.2 mph - N/A   Scattered Clouds
11:53 AM 62.1 °F 45.0 °F 53% 30.22 in 10.0 mi NE 10.4 mph - N/A   Scattered Clouds
12:53 PM 62.1 °F 48.0 °F 60% 30.19 in 10.0 mi NE 9.2 mph - N/A   Scattered Clouds
1:53 PM 63.0 °F 48.9 °F 60% 30.17 in 10.0 mi NNE 8.1 mph - N/A   Scattered Clouds
2:53 PM 64.0 °F 48.9 °F 58% 30.15 in 10.0 mi NNE 9.2 mph - N/A   Scattered Clouds
3:53 PM 64.0 °F 50.0 °F 60% 30.15 in 10.0 mi NNE 9.2 mph - N/A   Partly Cloudy
4:53 PM 63.0 °F 48.0 °F 58% 30.15 in 10.0 mi North 6.9 mph - N/A   Partly Cloudy
5:53 PM 62.1 °F 46.9 °F 58% 30.15 in 10.0 mi North 5.8 mph - N/A   Partly Cloudy
6:53 PM 59.0 °F 48.0 °F 67% 30.16 in 10.0 mi ENE 3.5 mph - N/A   Partly Cloudy
7:53 PM 59.0 °F 48.0 °F 67% 30.18 in 10.0 mi Calm Calm - N/A   Clear
8:53 PM 55.0 °F 48.0 °F 77% 30.20 in 10.0 mi Calm Calm - N/A   Clear
9:53 PM 57.0 °F 46.0 °F 67% 30.20 in 10.0 mi NE 3.5 mph - N/A   Clear
10:53 PM 57.0 °F 46.0 °F 67% 30.19 in 10.0 mi NE 4.6 mph - N/A   Clear
11:53 PM 57.0 °F 43.0 °F 59% 30.17 in 10.0 mi NE 4.6 mph - N/A   Clear